Location: Gollag?dem
(16.8053°N, 80.8024°E)
Time: 18:16:58
(UTC+00:00)

Cosmos 1605 Rocket - Pass Details

Date: 13 August 2020
Orbit: 945 x 1005 km, 82.9° (Epoch: 18 September)

Event Time Altitude Azimuth Distance (km) Brightness Sun altitude
Exits shadow 15:25:28 53° 359° (N) 1,153 4.4 -32.4°
Drops below altitude 10° 15:30:01 10° 3° (N) 2,669 6.6 -33.4°
Sets 15:32:29 0° 4° (N) 3,611 7.3 -33.9°
